Springboro, OH

6:13 AM EDT on August 28, 2016 (GMT -0400)
Dayton-Wright Brothers

Weather History for KMGY - April, 2013

Change the Weather History Date:

Wednesday, April 24, 2013

  Actual Average (KFFO) Record (KFFO)
Temperature  
Mean Temperature 50 °F -  
Max Temperature 64 °F 63 °F 78 °F (2008)
Min Temperature 37 °F 41 °F 29 °F (2015)
Degree Days  
Heating Degree Days 14    
Moisture  
Dew Point 43 °F    
Average Humidity 88    
Maximum Humidity 100    
Minimum Humidity 52    
Precipitation  
Precipitation 0.92 in - - ()
Sea Level Pressure  
Sea Level Pressure 29.90 in    
Wind  
Wind Speed 11 mph (WNW)    
Max Wind Speed 18 mph    
Max Gust Speed 29 mph    
Visibility 5 miles    
Events Rain    
Averages and records for this station are not official NWS values.
T = Trace of Precipitation, MM = Missing Value Source: NWS Daily Summary

Daily Weather History Graph

Daily Weather History Graph

Search for Another Location

Airport or City:

Trip Planner

Search our weather history database for the weather conditions in past years. The results will help you decide how hot, cold, wet, or windy it might be!

Date:

Astronomy

Apr. 24, 2013 Rise Set
Actual Time 6:46 AM EDT 8:24 PM EDT
Civil Twilight 6:17 AM EDT 8:52 PM EDT
Nautical Twilight 5:43 AM EDT 9:27 PM EDT
Astronomical Twilight 5:06 AM EDT 10:04 PM EDT
Moon 7:26 PM EDT (4/24) 5:49 AM EDT (4/24)
Length of Visible Light 14h 34m
Length of Day
13h 37m
Waxing Gibbous, 98% of the Moon is Illuminated
Apr 24
Waxing Gibbous
Apr 25
Full
May 2
Last Quarter
May 9
New
May 18
First Quarter

Hourly Weather History & Observations

Time (EDT) Temp. Windchill Dew Point Humidity Pressure Visibility Wind Dir Wind Speed Gust Speed Precip Events Conditions
12:53 AM 64.0 °F - 46.9 °F 54% 29.81 in 10.0 mi South 17.3 mph - N/A   Scattered Clouds
1:53 AM 64.9 °F - 46.9 °F 52% 29.80 in 10.0 mi SSW 18.4 mph 28.8 mph N/A   Overcast
2:53 AM 64.0 °F - 48.9 °F 58% 29.79 in 10.0 mi SSW 16.1 mph 27.6 mph 0.00 in   Overcast
3:53 AM 64.0 °F - 50.0 °F 60% 29.77 in 10.0 mi SSW 13.8 mph 20.7 mph N/A   Overcast
4:53 AM 64.0 °F - 50.0 °F 60% 29.77 in 10.0 mi SSW 9.2 mph - N/A   Overcast
6:09 AM 60.8 °F - 53.6 °F 77% 29.80 in 10.0 mi West 6.9 mph - N/A   Overcast
6:53 AM 59.0 °F - 54.0 °F 83% 29.79 in 10.0 mi West 10.4 mph 18.4 mph N/A   Overcast
7:47 AM 57.2 °F - 55.4 °F 94% 29.80 in 2.5 mi West 4.6 mph - 0.03 in Rain Heavy Rain
7:48 AM 57.0 °F - 55.0 °F 93% 29.79 in 2.0 mi West 5.8 mph - 0.03 in Rain Heavy Rain
7:57 AM 53.6 °F - 53.6 °F 100% 29.81 in 4.0 mi NW 13.8 mph 21.9 mph 0.01 in Rain Light Rain
8:13 AM 51.8 °F - 48.2 °F 88% 29.80 in 10.0 mi Calm Calm - 0.01 in   Overcast
8:17 AM 51.8 °F - 50.0 °F 94% 29.80 in 1.8 mi Calm Calm - 0.06 in Rain Heavy Rain
8:26 AM 51.8 °F - 48.2 °F 88% 29.82 in 0.8 mi Calm Calm - 0.14 in Rain Heavy Rain
8:35 AM 50.0 °F - 48.2 °F 94% 29.82 in 1.2 mi Calm Calm - 0.19 in Rain Heavy Rain
8:43 AM 51.8 °F - 50.0 °F 94% 29.82 in 1.2 mi NW 4.6 mph - 0.24 in Rain Heavy Rain
8:53 AM 50.0 °F - 48.9 °F 96% 29.81 in 1.5 mi NW 6.9 mph - 0.29 in Rain Heavy Rain
8:57 AM 50.0 °F - 48.2 °F 94% 29.82 in 2.0 mi NW 6.9 mph - 0.00 in Rain Rain
9:01 AM 50.0 °F - 48.2 °F 94% 29.80 in 3.0 mi NNW 9.2 mph - 0.01 in Rain Light Rain
9:11 AM 48.2 °F - 48.2 °F 100% 29.80 in 3.0 mi NNW 12.7 mph - 0.03 in Rain Rain
9:33 AM 48.2 °F - 48.2 °F 100% 29.81 in 2.0 mi NW 9.2 mph - 0.10 in Rain Rain
9:53 AM 46.0 °F 41.0 °F 45.0 °F 96% 29.81 in 2.0 mi NNW 10.4 mph 17.3 mph 0.22 in Rain Heavy Rain
10:03 AM 46.4 °F 40.7 °F 44.6 °F 93% 29.81 in 2.5 mi NW 12.7 mph - 0.05 in Rain Rain
10:06 AM 44.6 °F 39.2 °F 44.6 °F 100% 29.81 in 3.0 mi NW 10.4 mph - 0.06 in Rain Rain
10:23 AM 44.6 °F 39.7 °F 44.6 °F 100% 29.86 in 2.5 mi WNW 9.2 mph - 0.13 in Rain Heavy Rain
10:31 AM 44.6 °F 39.7 °F 42.8 °F 93% 29.85 in 1.5 mi NW 9.2 mph - 0.19 in Rain Heavy Rain
10:43 AM 44.6 °F 42.2 °F 44.6 °F 100% 29.84 in 2.0 mi North 4.6 mph - 0.24 in Rain Rain
10:50 AM 44.6 °F 40.7 °F 44.6 °F 100% 29.83 in 2.0 mi NNW 6.9 mph - 0.27 in Rain Rain
10:53 AM 44.1 °F 40.8 °F 43.0 °F 96% 29.83 in 2.5 mi NNW 5.8 mph - 0.28 in Rain Rain
11:01 AM 44.6 °F 39.7 °F 42.8 °F 93% 29.83 in 5.0 mi NNW 9.2 mph - 0.01 in Rain Light Rain
11:10 AM 44.6 °F 39.2 °F 42.8 °F 93% 29.83 in 5.0 mi NW 10.4 mph - 0.02 in Rain Light Rain
11:21 AM 42.8 °F 36.6 °F 42.8 °F 100% 29.83 in 6.0 mi NW 11.5 mph - 0.04 in Rain Rain
11:31 AM 44.6 °F 40.7 °F 42.8 °F 93% 29.80 in 5.0 mi NNW 6.9 mph - 0.05 in Rain Light Rain
11:44 AM 42.8 °F 38.0 °F 42.8 °F 100% 29.80 in 7.0 mi NNW 8.1 mph - 0.06 in Rain Light Rain
11:51 AM 42.8 °F 37.5 °F 42.8 °F 100% 29.83 in 4.0 mi WNW 9.2 mph 17.3 mph 0.08 in Rain Rain
11:52 AM 43.0 °F 37.2 °F 42.1 °F 97% 29.84 in 4.0 mi WNW 10.4 mph 17.3 mph 0.08 in Rain Rain
12:31 PM 42.8 °F 36.2 °F 41.0 °F 93% 29.88 in 3.0 mi NW 12.7 mph - 0.00 in   Overcast
12:42 PM 42.8 °F 35.8 °F 41.0 °F 93% 29.90 in 2.5 mi WNW 13.8 mph - 0.00 in   Overcast
12:47 PM 42.8 °F 35.8 °F 41.0 °F 93% 29.90 in 3.0 mi WNW 13.8 mph 21.9 mph 0.00 in   Overcast
12:53 PM 42.1 °F 34.9 °F 41.0 °F 96% 29.91 in 3.0 mi WNW 13.8 mph 21.9 mph 0.00 in Rain Light Rain
12:55 PM 42.8 °F 35.8 °F 41.0 °F 93% 29.91 in 2.5 mi WNW 13.8 mph - 0.00 in Rain Light Rain
1:16 PM 42.8 °F 35.1 °F 41.0 °F 93% 29.92 in 2.5 mi West 16.1 mph 23.0 mph 0.01 in Rain Light Rain
1:24 PM 42.8 °F 35.4 °F 41.0 °F 93% 29.92 in 1.8 mi West 15.0 mph 24.2 mph 0.01 in Rain Light Rain
1:28 PM 42.8 °F 35.1 °F 41.0 °F 93% 29.93 in 2.0 mi WNW 16.1 mph 24.2 mph 0.01 in Rain Light Rain
1:35 PM 41.0 °F 32.5 °F 39.2 °F 93% 29.93 in 3.0 mi WNW 17.3 mph 26.5 mph 0.02 in Rain Light Rain
1:41 PM 42.8 °F 36.6 °F 41.0 °F 93% 29.93 in 2.5 mi WNW 11.5 mph 26.5 mph 0.02 in   Overcast
1:53 PM 41.0 °F 32.8 °F 41.0 °F 100% 29.93 in 2.5 mi West 16.1 mph 21.9 mph 0.02 in   Overcast
1:55 PM 41.0 °F 32.5 °F 39.2 °F 93% 29.93 in 3.0 mi WNW 17.3 mph 24.2 mph N/A   Overcast
2:46 PM 39.2 °F 31.2 °F 37.4 °F 93% 29.96 in 10.0 mi WNW 13.8 mph 23.0 mph 0.00 in   Overcast
2:53 PM 39.9 °F 31.4 °F 37.0 °F 89% 29.97 in 10.0 mi WNW 16.1 mph 23.0 mph 0.00 in   Overcast
3:08 PM 39.2 °F 30.5 °F 35.6 °F 87% 29.98 in 10.0 mi NW 16.1 mph 27.6 mph N/A   Overcast
3:53 PM 39.9 °F 32.1 °F 36.0 °F 86% 30.01 in 10.0 mi WNW 13.8 mph 23.0 mph N/A   Overcast
4:53 PM 41.0 °F 33.5 °F 34.0 °F 76% 30.05 in 10.0 mi WNW 13.8 mph 24.2 mph N/A   Overcast
5:27 PM 42.8 °F 35.8 °F 33.8 °F 70% 30.07 in 10.0 mi West 13.8 mph 21.9 mph N/A   Overcast
5:53 PM 43.0 °F 36.8 °F 35.1 °F 74% 30.09 in 10.0 mi WNW 11.5 mph - 0.00 in   Overcast
6:53 PM 45.0 °F 40.1 °F 33.1 °F 63% 30.12 in 10.0 mi WNW 9.2 mph 17.3 mph N/A   Mostly Cloudy
7:53 PM 43.0 °F 37.7 °F 33.1 °F 68% 30.14 in 10.0 mi WNW 9.2 mph - N/A   Mostly Cloudy
8:53 PM 43.0 °F 38.8 °F 34.0 °F 71% 30.17 in 10.0 mi West 6.9 mph - N/A   Overcast
9:09 PM 42.8 °F 40.1 °F 33.8 °F 70% 30.16 in 10.0 mi West 4.6 mph - N/A   Scattered Clouds
9:53 PM 39.9 °F 36.7 °F 35.1 °F 83% 30.21 in 10.0 mi WSW 4.6 mph - N/A   Clear
10:53 PM 37.9 °F - 34.0 °F 86% 30.22 in 10.0 mi Calm Calm - N/A   Clear
11:53 PM 37.9 °F - 34.0 °F 86% 30.22 in 10.0 mi Calm Calm - N/A   Clear